This is the latest recevied weather packets stored in our database for station/object W9QL-13. If no packets are shown the sender has not sent any weather packets the latest 10 day(s).
| Time | Temp. | Humidity | Pressure | Rain* | Wind** | Luminosity | Snow |
|---|---|---|---|---|---|---|---|
| 1778267361 | 17.78° C | 34% | 1006.8 hPa | 0 mm | - | - | - |
| 1778267031 | 17.78° C | 33% | 1006.9 hPa | 0 mm | - | - | - |
| 1778266701 | 17.78° C | 34% | 1007 hPa | 0 mm | - | - | - |
| 1778266401 | 17.78° C | 32% | 1007.1 hPa | 0 mm | - | - | - |
| 1778266074 | 17.78° C | 35% | 1007.2 hPa | 0 mm | - | - | - |
| 1778265771 | 17.78° C | 36% | 1007.2 hPa | 0 mm | - | - | - |
| 1778265473 | 17.78° C | 34% | 1007.3 hPa | 0 mm | - | - | - |
| 1778265171 | 18.33° C | 34% | 1007.2 hPa | 0 mm | - | - | - |
| 1778264872 | 18.33° C | 36% | 1007.3 hPa | 0 mm | - | - | - |
| 1778264571 | 18.33° C | 34% | 1007.3 hPa | 0 mm | - | - | - |
| 1778264271 | 17.78° C | 38% | 1007.4 hPa | 0 mm | - | - | - |
| 1778263971 | 18.33° C | 35% | 1007.5 hPa | 0 mm | - | - | - |
| 1778263641 | 18.33° C | 38% | 1007.5 hPa | 0 mm | - | - | - |
| 1778263311 | 18.33° C | 33% | 1007.6 hPa | 0 mm | - | - | - |
| 1778262981 | 18.89° C | 35% | 1007.7 hPa | 0 mm | - | - | - |
| 1778262681 | 18.89° C | 37% | 1007.7 hPa | 0 mm | - | - | - |
| 1778262351 | 18.89° C | 31% | 1007.8 hPa | 0 mm | - | - | - |
| 1778262021 | 18.33° C | 33% | 1008 hPa | 0 mm | - | - | - |
| 1778261721 | 18.89° C | 30% | 1008 hPa | 0 mm | - | - | - |
| 1778261421 | 18.33° C | 31% | 1008 hPa | 0 mm | - | - | - |
| 1778261121 | 17.78° C | 32% | 1008.1 hPa | 0 mm | - | - | - |
| 1778260791 | 17.78° C | 35% | 1008.3 hPa | 0 mm | - | - | - |
| 1778260461 | 17.78° C | 33% | 1008.3 hPa | 0 mm | - | - | - |
| 1778260161 | 17.78° C | 31% | 1008.4 hPa | 0 mm | - | - | - |
| 1778259861 | 17.78° C | 31% | 1008.4 hPa | 0 mm | - | - | - |
* Rain latest hour (hover to see other rain measurements)
** Current wind speed in m/s (hover to see current wind gust speed)